1495594801.15,48800,15.13,73808.5,0.33,-7.91,-11.45,0,*77
1495594802.36,48801,15.13,73810.5,0.35,-7.99,-11.41,0,*7C
1495594803.6,48802,15.13,73810.0,0.35,-7.99,-11.51,0,*7E
1495594804.81,48803,15.13,73808.5,0.35,-8.03,-11.45,0,*76
1495594806.07,48804,15.13,73808.3,0.33,-8.03,-11.55,0,*76
1495594807.3,48805,15.13,73810.0,0.35,-7.99,-11.51,0,*79
1495594808.53,48806,15.13,73812.0,0.35,-8.07,-11.41,0,*73
1495594809.76,48807,15.13,73810.8,0.33,-8.11,-11.45,0,*77
1495594810.98,48808,15.13,73810.5,0.35,-8.07,-11.41,0,*7D
1495594812.22,48809,15.13,73812.0,0.33,-8.11,-11.45,0,*79
1495594813.46,48810,15.13,73808.8,0.35,-8.11,-11.51,0,*72
1495594814.7,48811,15.19,73810.5,0.33,-8.25,-11.55,0,*76
1495594815.89,48812,15.13,73810.0,0.35,-8.21,-11.41,0,*72
1495594817.08,48813,15.13,73808.8,0.35,-8.21,-11.41,0,*73
1495594818.29,48814,15.13,73810.3,0.35,-8.21,-11.51,0,*75
1495594819.53,48815,15.13,73808.3,0.35,-8.11,-11.51,0,*77
1495594820.75,48816,15.13,73808.8,0.35,-8.07,-11.41,0,*72
1495594821.97,48817,15.13,73808.0,0.35,-8.11,-11.41,0,*74
1495594823.22,48818,15.13,73810.3,0.35,-8.07,-11.63,0,*7C
1495594824.47,48819,15.13,73810.3,0.35,-8.11,-11.63,0,*7A
1495594825.71,48820,15.13,73812.3,0.35,-7.95,-11.67,0,*77
1495594826.95,48821,15.13,73810.5,0.35,-7.95,-11.89,0,*76
1495594828.14,48822,15.13,73812.3,0.35,-7.83,-12.03,0,*73
1495594829.36,48823,15.13,73812.0,0.35,-7.83,-12.15,0,*75
1495594830.57,48824,15.13,73812.0,0.35,-7.69,-12.25,0,*75
1495594831.8,48825,15.19,73812.8,0.37,-7.77,-12.47,0,*7D
1495594833.06,48826,15.13,73808.8,0.37,-7.69,-12.65,0,*71
1495594834.27,48827,15.13,73812.3,0.35,-7.69,-12.93,0,*7B
1495594835.5,48828,15.13,73808.5,0.37,-7.69,-13.07,0,*7A
1495594836.76,48829,15.13,73810.8,0.37,-7.69,-13.37,0,*78
1495594837.97,48830,15.13,73810.0,0.39,-7.65,-13.55,0,*76
1495594839.21,48831,15.19,73814.0,0.39,-7.73,-13.87,0,*7F
1495594840.44,48832,15.19,73812.0,0.37,-7.77,-14.19,0,*76
1495594841.65,48833,15.13,73812.5,0.37,-7.87,-14.29,0,*7B
1495594842.9,48834,15.13,73808.3,0.37,-7.99,-14.75,0,*7A
1495594844.17,48835,15.13,73808.5,0.37,-8.11,-14.97,0,*78
1495594845.4,48836,15.13,73810.0,0.37,-8.21,-15.35,0,*71
1495594846.61,48837,15.13,73810.0,0.37,-8.33,-15.63,0,*70
1495594847.88,48838,15.13,73810.8,0.37,-8.51,-15.81,0,*77
1495594849.12,48839,15.13,73810.8,0.37,-8.63,-16.09,0,*74
1495594850.33,48840,15.13,73810.8,0.37,-8.75,-16.37,0,*70
1495594851.57,48841,15.13,73812.5,0.37,-8.89,-16.51,0,*72
1495594852.78,48842,15.13,73810.5,0.41,-8.97,-16.59,0,*77
1495594853.96,48843,15.13,73808.5,0.39,-9.23,-16.97,0,*75
1495594855.23,48844,15.19,73814.0,0.37,-9.41,-17.25,0,*70
1495594856.48,48845,15.19,73814.5,0.37,-9.57,-17.45,0,*70
1495594857.71,48846,15.13,73810.5,0.37,-9.75,-17.55,0,*72
1495594858.95,48847,15.13,73806.8,0.37,-10.01,-17.79,0,*46
1495594860.19,48848,15.13,73808.5,0.37,-10.27,-17.93,0,*49
1495594861.39,48849,15.13,73810.0,0.39,-10.35,-18.11,0,*40
1495594862.59,48850,15.13,73808.3,0.37,-10.53,-18.21,0,*45
1495594863.87,48851,15.13,73808.5,0.37,-10.67,-18.35,0,*46
1495594865.11,48852,15.13,73810.0,0.39,-10.79,-18.31,0,*40
1495594866.3,48853,15.13,73808.8,0.39,-10.93,-18.41,0,*42
1495594867.52,48854,15.13,73810.0,0.37,-11.11,-18.49,0,*48
1495594868.76,48855,15.13,73808.3,0.37,-11.33,-18.65,0,*47
1495594870.0,48856,15.13,73808.0,0.37,-11.37,-18.65,0,*40
1495594871.2,48857,15.13,73812.3,0.39,-11.45,-18.73,0,*4D
1495594872.43,48858,15.13,73808.3,0.37,-11.55,-18.83,0,*42
1495594873.7,48859,15.13,73810.8,0.37,-11.67,-18.93,0,*43
1495594874.93,48860,15.19,73810.8,0.37,-11.77,-18.99,0,*42
1495594876.19,48861,15.13,73810.0,0.37,-11.81,-19.23,0,*4A
1495594877.45,48862,15.13,73808.0,0.37,-11.89,-19.23,0,*41
1495594878.72,48863,15.13,73808.8,0.37,-11.93,-19.23,0,*4B
1495594879.95,48864,15.13,73810.0,0.37,-12.03,-19.27,0,*42
1495594881.22,48865,15.13,73810.5,0.37,-12.07,-19.41,0,*47
1495594882.44,48866,15.13,73810.0,0.35,-12.15,-19.51,0,*44
1495594883.67,48867,15.13,73812.3,0.35,-12.21,-19.65,0,*45
1495594884.89,48868,15.13,73810.0,0.35,-12.35,-19.75,0,*4E
1495594886.13,48869,15.13,73808.3,0.37,-12.35,-19.91,0,*47
1495594887.35,48870,15.13,73808.3,0.37,-12.39,-19.99,0,*4B
1495594888.59,48871,15.13,73810.5,0.37,-12.53,-20.05,0,*49
1495594889.86,48872,15.13,73806.8,0.37,-12.61,-20.19,0,*46
1495594891.09,48873,15.13,73808.0,0.37,-12.61,-20.29,0,*44
1495594892.34,48874,15.13,73810.8,0.37,-12.79,-20.43,0,*46
1495594893.59,48875,15.13,73810.3,0.37,-12.89,-20.49,0,*42
1495594894.83,48876,15.13,73806.8,0.39,-12.83,-20.53,0,*4E
1495594896.05,48877,15.13,73810.8,0.37,-12.93,-20.69,0,*49
1495594897.27,48878,15.19,73812.8,0.37,-13.07,-20.89,0,*44
1495594898.49,48879,15.13,73810.3,0.37,-13.19,-21.13,0,*48
1495594899.73,48880,15.13,73808.5,0.37,-13.33,-21.13,0,*46
1495594900.97,48881,15.13,73808.3,0.37,-13.37,-21.13,0,*43
1495594902.2,48882,15.13,73810.8,0.39,-13.51,-21.27,0,*49
1495594903.41,48883,15.13,73808.5,0.37,-13.65,-21.39,0,*4E
1495594904.68,48884,15.13,73808.8,0.37,-14.01,-21.57,0,*44
1495594905.96,48885,15.13,73804.3,0.37,-14.05,-21.67,0,*42
1495594907.17,48886,15.13,73808.0,0.37,-14.19,-21.73,0,*49
1495594908.39,48887,15.13,73808.5,0.37,-14.33,-21.77,0,*44
1495594909.66,48888,15.13,73806.8,0.37,-14.51,-21.83,0,*44
1495594910.9,48889,15.13,73810.5,0.37,-14.75,-21.93,0,*42
1495594912.14,48890,15.13,73810.5,0.37,-14.79,-22.03,0,*4C
1495594913.35,48891,15.13,73810.8,0.37,-15.07,-22.03,0,*45
1495594914.59,48892,15.19,73812.3,0.37,-15.11,-22.17,0,*44
1495594915.83,48893,15.13,73808.5,0.37,-15.39,-22.07,0,*4E
1495594917.07,48894,15.13,73810.0,0.37,-15.49,-22.17,0,*4F
1495594918.32,48895,15.13,73808.3,0.37,-15.67,-22.17,0,*42
1495594919.58,48896,15.13,73810.0,0.37,-15.81,-22.17,0,*49
1495594920.83,48897,15.13,73810.5,0.37,-15.95,-22.17,0,*4D
1495594922.05,48898,15.13,73808.0,0.35,-16.09,-22.07,0,*47
1495594923.27,48899,15.13,73810.5,0.35,-16.23,-22.07,0,*4E
1495594924.47,48900,15.13,73808.5,0.35,-16.37,-22.07,0,*4A
1495594925.69,48901,15.13,73808.8,0.35,-16.51,-22.03,0,*4F
1495594926.93,48902,15.13,73808.5,0.37,-16.65,-22.07,0,*4D
1495594928.18,48903,15.13,73810.5,0.37,-16.83,-22.17,0,*45
1495594929.42,48904,15.13,73806.8,0.37,-16.97,-22.17,0,*47
1495594930.66,48905,15.13,73806.0,0.37,-17.11,-22.07,0,*48
1495594931.9,48906,15.13,73810.3,0.37,-17.17,-22.07,0,*4D
1495594933.12,48907,15.13,73810.8,0.35,-17.17,-22.07,0,*4E
1495594934.38,48908,15.13,73806.8,0.35,-17.41,-22.17,0,*43
1495594935.59,48909,15.13,73808.0,0.33,-17.49,-22.11,0,*4A
1495594936.84,48910,15.19,73808.8,0.35,-17.59,-22.17,0,*43
1495594938.09,48911,15.13,73810.5,0.37,-17.69,-22.17,0,*43
1495594939.35,48912,15.13,73808.3,0.37,-17.79,-22.17,0,*41
1495594940.58,48913,15.13,73806.8,0.35,-17.87,-22.17,0,*43
1495594941.8,48914,15.13,73808.3,0.35,-17.93,-22.07,0,*40
1495594943.02,48915,15.13,73808.8,0.35,-18.01,-22.07,0,*45
1495594944.23,48916,15.13,73806.3,0.33,-18.07,-22.11,0,*41
1495594945.43,48917,15.13,73808.5,0.35,-18.17,-22.07,0,*40
1495594946.62,48918,15.13,73808.8,0.35,-18.21,-22.07,0,*4A
1495594947.86,48919,15.13,73808.0,0.33,-18.35,-22.11,0,*4F
1495594949.13,48920,15.13,73810.8,0.33,-18.35,-21.97,0,*48
1495594950.35,48921,15.13,73808.0,0.35,-18.35,-21.93,0,*4B
1495594951.57,48922,15.13,73810.5,0.33,-18.65,-21.93,0,*4B
1495594952.79,48923,15.19,73808.0,0.35,-18.73,-21.87,0,*4E
1495594953.99,48924,15.13,73806.3,0.35,-18.65,-21.77,0,*41
1495594955.2,48925,15.13,73804.3,0.37,-18.73,-21.73,0,*41
1495594956.42,48926,15.13,73806.5,0.35,-18.83,-21.67,0,*4A
1495594957.65,48927,15.13,73806.8,0.35,-18.99,-21.67,0,*40
1495594958.86,48928,15.13,73808.8,0.33,-19.03,-21.63,0,*4F
1495594960.09,48929,15.13,73804.0,0.35,-19.13,-21.53,0,*4A
1495594961.32,48930,15.13,73808.8,0.35,-19.27,-21.43,0,*44
1495594962.58,48931,15.13,73808.3,0.35,-19.27,-21.23,0,*43
1495594963.86,48932,15.13,73804.0,0.33,-19.31,-21.27,0,*45
1495594965.12,48933,15.13,73804.0,0.33,-19.41,-21.03,0,*45
1495594966.35,48934,15.13,73806.8,0.35,-19.37,-20.83,0,*4C
1495594967.56,48935,15.13,73808.3,0.35,-19.37,-20.59,0,*4A
1495594968.78,48936,15.13,73804.8,0.33,-19.47,-20.63,0,*41
1495594970.03,48937,15.13,73808.0,0.33,-19.41,-20.39,0,*49
1495594971.23,48938,15.13,73804.8,0.35,-19.37,-20.29,0,*40
1495594972.48,48939,15.13,73804.0,0.33,-19.27,-20.25,0,*4A
1495594973.73,48940,15.13,73806.3,0.33,-19.31,-20.09,0,*4D
1495594974.97,48941,15.13,73808.5,0.33,-19.41,-19.91,0,*40
1495594976.2,48942,15.13,73804.8,0.35,-19.27,-19.75,0,*4F
1495594977.45,48943,15.13,73806.5,0.33,-19.31,-19.71,0,*4B
1495594978.67,48944,15.13,73806.5,0.35,-19.37,-19.65,0,*49
1495594979.92,48945,15.19,73810.8,0.33,-19.47,-19.61,0,*4D
1495594981.19,48946,15.13,73804.8,0.33,-19.61,-19.61,0,*4A
1495594982.43,48947,15.19,73810.5,0.33,-19.57,-19.47,0,*4A
1495594983.66,48948,15.13,73804.0,0.35,-19.57,-19.37,0,*44
1495594984.91,48949,15.13,73806.3,0.33,-19.61,-19.17,0,*44
1495594986.15,48950,15.13,73804.3,0.33,-19.57,-19.03,0,*4C
1495594987.33,48951,15.13,73804.3,0.31,-19.47,-18.79,0,*42
1495594988.53,48952,15.13,73802.3,0.31,-19.47,-18.49,0,*42
1495594989.77,48953,15.13,73804.3,0.33,-19.31,-18.41,0,*48
1495594991.02,48954,15.13,73802.8,0.33,-19.27,-18.21,0,*4E
1495594992.23,48955,15.13,73806.3,0.31,-19.03,-17.93,0,*4D
1495594993.45,48956,15.13,73808.0,0.31,-18.99,-17.63,0,*43
1495594994.66,48957,15.13,73806.0,0.31,-18.89,-17.49,0,*4B
1495594995.88,48958,15.13,73806.8,0.31,-18.79,-17.21,0,*45
1495594997.1,48959,15.13,73804.5,0.31,-18.55,-16.83,0,*43
1495594998.32,48960,15.13,73806.3,0.31,-18.35,-16.59,0,*48
1495594999.54,48961,15.19,73810.5,0.33,-18.11,-16.41,0,*44
1495595000.81,48962,15.13,73804.5,0.33,-17.97,-16.17,0,*45
1495595002.05,48963,15.13,73806.0,0.33,-17.63,-15.95,0,*46
1495595003.33,48964,15.13,73806.0,0.33,-17.45,-15.81,0,*40
1495595004.57,48965,15.13,73806.8,0.33,-17.21,-15.67,0,*4B
1495595005.79,48966,15.19,73808.0,0.31,-17.03,-15.53,0,*4D
1495595007.02,48967,15.13,73806.8,0.31,-16.69,-15.29,0,*4C
1495595008.24,48968,15.13,73806.8,0.31,-16.31,-15.25,0,*42
1495595009.46,48969,15.13,73804.3,0.31,-16.17,-15.11,0,*40
1495595010.71,48970,15.13,73806.3,0.29,-15.75,-15.01,0,*47
1495595011.93,48971,15.13,73804.0,0.31,-15.53,-15.01,0,*4B
1495595013.15,48972,15.19,73810.8,0.31,-15.25,-14.97,0,*47
1495595014.42,48973,15.13,73808.0,0.33,-14.83,-15.01,0,*47
1495595015.63,48974,15.13,73806.8,0.33,-14.69,-15.11,0,*45
1495595016.87,48975,15.13,73806.5,0.33,-14.43,-15.11,0,*4C
1495595018.1,48976,15.13,73808.5,0.33,-14.15,-15.15,0,*48
1495595019.35,48977,15.13,73806.5,0.33,-13.83,-15.29,0,*4E
1495595020.58,48978,15.13,73806.3,0.31,-13.79,-15.53,0,*4B
1495595021.77,48979,15.13,73806.3,0.31,-13.69,-15.67,0,*4C
1495595023.02,48980,15.19,73810.0,0.33,-13.51,-15.81,0,*4B
1495595024.24,48981,15.13,73804.3,0.31,-13.37,-15.99,0,*41
1495595025.48,48982,15.13,73810.3,0.33,-13.23,-16.27,0,*43
1495595026.7,48983,15.13,73808.8,0.31,-13.29,-16.55,0,*4F
1495595027.95,48984,15.19,73808.8,0.29,-13.33,-16.75,0,*48
1495595029.14,48985,15.13,73808.8,0.31,-13.23,-16.93,0,*49
1495595030.36,48986,15.13,73810.5,0.31,-13.23,-17.17,0,*47
1495595031.55,48987,15.13,73808.8,0.31,-13.15,-17.49,0,*48
1495595032.79,48988,15.13,73808.0,0.33,-13.23,-17.59,0,*41
1495595034.04,48989,15.13,73804.8,0.33,-13.23,-17.79,0,*42
1495595035.31,48990,15.13,73804.8,0.33,-13.29,-17.97,0,*40
1495595036.53,48991,15.13,73808.8,0.33,-13.43,-18.11,0,*4C
1495595037.72,48992,15.13,73808.0,0.31,-13.51,-18.41,0,*4B
1495595038.94,48993,15.13,73808.0,0.31,-13.55,-18.55,0,*4B
1495595040.15,48994,15.13,73810.0,0.31,-13.79,-18.83,0,*49
1495595041.37,48995,15.19,73812.0,0.31,-13.83,-18.99,0,*46
1495595042.59,48996,15.13,73808.5,0.31,-14.05,-19.17,0,*4B
1495595043.82,48997,15.19,73810.3,0.31,-14.23,-19.27,0,*4D
1495595045.04,48998,15.19,73810.8,0.31,-14.37,-19.57,0,*40
1495595046.32,48999,15.19,73810.0,0.33,-14.51,-19.61,0,*46
1495595047.53,49000,15.19,73810.3,0.31,-14.65,-19.81,0,*45
1495595048.77,49001,15.13,73808.0,0.33,-14.83,-19.91,0,*4F
1495595050.01,49002,15.13,73808.5,0.33,-15.01,-19.95,0,*43
1495595051.23,49003,15.19,73808.5,0.33,-15.15,-20.09,0,*48
1495595052.45,49004,15.13,73810.3,0.33,-15.29,-20.25,0,*4E
1495595053.68,49005,15.13,73808.3,0.31,-15.53,-20.49,0,*4A
1495595054.89,49006,15.13,73810.3,0.33,-15.67,-20.63,0,*44
1495595056.14,49007,15.13,73806.3,0.33,-15.85,-20.69,0,*43
1495595057.35,49008,15.19,73810.3,0.33,-15.99,-20.73,0,*4A
1495595058.55,49009,15.13,73810.8,0.31,-15.99,-20.89,0,*4C
1495595059.79,49010,15.13,73804.8,0.31,-16.27,-20.99,0,*43
1495595061.01,49011,15.19,73810.0,0.31,-16.27,-21.13,0,*41
1495595062.23,49012,15.13,73808.8,0.29,-16.37,-21.17,0,*4E
1495595063.43,49013,15.19,73808.5,0.31,-16.45,-21.17,0,*43
1495595064.71,49014,15.13,73810.5,0.29,-16.65,-21.23,0,*48
1495595065.95,49015,15.13,73808.8,0.31,-16.69,-21.33,0,*4D
1495595067.14,49016,15.13,73808.8,0.31,-16.75,-21.47,0,*40
1495595068.36,49017,15.13,73804.0,0.29,-16.93,-21.43,0,*44
1495595069.54,49018,15.19,73810.0,0.31,-16.93,-21.63,0,*40
1495595070.76,49019,15.19,73810.8,0.31,-17.07,-21.77,0,*48
1495595072.01,49020,15.13,73806.5,0.33,-17.21,-21.93,0,*4E
1495595073.25,49021,15.19,73808.3,0.33,-17.21,-21.93,0,*4F
1495595074.46,49022,15.13,73806.5,0.31,-17.31,-21.97,0,*4B
1495595075.68,49023,15.13,73804.5,0.31,-17.45,-22.11,0,*44
1495595076.93,49024,15.13,73806.0,0.31,-17.45,-22.21,0,*40
1495595078.15,49025,15.13,73800.3,0.31,-17.49,-22.21,0,*4D
1495595079.38,49026,15.13,73806.5,0.33,-17.63,-22.27,0,*42
1495595080.62,49027,15.13,73804.8,0.33,-17.63,-22.53,0,*40
1495595081.86,49028,15.13,73806.3,0.33,-17.79,-22.53,0,*44
1495595083.08,49029,15.13,73806.0,0.33,-17.83,-22.53,0,*40
1495595084.29,49030,15.19,73810.0,0.31,-17.93,-22.67,0,*4C
1495595085.54,49031,15.13,73806.3,0.31,-17.97,-22.77,0,*48
1495595086.76,49032,15.13,73806.3,0.33,-18.07,-22.87,0,*40
1495595087.98,49033,15.13,73810.8,0.33,-18.11,-22.93,0,*43
1495595089.19,49034,15.19,73810.5,0.33,-18.11,-23.09,0,*46
1495595090.41,49035,15.13,73806.0,0.33,-18.11,-23.09,0,*47
1495595091.66,49036,15.13,73808.0,0.33,-18.21,-23.19,0,*46
1495595092.9,49037,15.19,73808.8,0.33,-18.25,-23.19,0,*43
1495595094.15,49038,15.13,73804.3,0.35,-18.31,-23.19,0,*4F
1495595095.41,49039,15.13,73806.8,0.33,-18.35,-23.33,0,*44
1495595096.66,49040,15.19,73808.3,0.33,-18.41,-23.33,0,*49
1495595097.9,49041,15.13,73808.0,0.33,-18.41,-23.33,0,*48
1495595099.14,49042,15.13,73808.0,0.33,-18.55,-23.39,0,*44
1495595100.38,49043,15.19,73808.3,0.35,-18.59,-23.29,0,*4E
1495595101.59,49044,15.13,73806.0,0.33,-18.65,-23.39,0,*41
1495595102.83,49045,15.19,73810.3,0.33,-18.79,-23.49,0,*4A
1495595104.03,49046,15.13,73806.8,0.35,-18.73,-23.43,0,*4F
1495595105.27,49047,15.13,73804.5,0.33,-18.83,-23.49,0,*4D
1495595106.53,49048,15.13,73806.0,0.33,-18.89,-23.53,0,*43
1495595107.79,49049,15.13,73808.3,0.33,-18.89,-23.53,0,*42
1495595109.03,49050,15.13,73806.5,0.33,-18.99,-23.53,0,*4B
1495595110.28,49051,15.13,73804.8,0.35,-18.93,-23.49,0,*4D
1495595111.49,49052,15.13,73804.5,0.33,-19.17,-23.79,0,*46
1495595112.74,49053,15.13,73806.5,0.33,-19.13,-23.65,0,*4E
1495595113.98,49054,15.13,73804.5,0.33,-19.17,-23.69,0,*41
1495595115.25,49055,15.13,73804.5,0.33,-19.27,-23.65,0,*4F
1495595116.52,49056,15.19,73808.0,0.33,-19.31,-23.53,0,*4E
1495595117.79,49057,15.19,73806.0,0.33,-19.31,-23.49,0,*44
1495595119.01,49058,15.13,73806.3,0.35,-19.47,-23.53,0,*47
1495595120.28,49059,15.19,73804.8,0.33,-19.57,-23.49,0,*4A
1495595121.55,49060,15.19,73804.5,0.33,-19.57,-23.49,0,*40
1495595122.79,49061,15.19,73804.8,0.33,-19.61,-23.39,0,*43
1495595124.03,49062,15.13,73806.8,0.33,-19.71,-23.33,0,*4B
1495595125.28,49063,15.13,73806.3,0.33,-19.71,-23.33,0,*4A
1495595126.52,49064,15.19,73804.8,0.33,-19.75,-23.23,0,*48
1495595127.76,49065,15.13,73804.0,0.33,-19.75,-23.19,0,*40
1495595129.0,49066,15.19,73806.8,0.33,-19.75,-23.19,0,*43
1495595130.2,49067,15.19,73808.0,0.35,-19.71,-23.13,0,*4A
1495595131.43,49068,15.19,73808.0,0.35,-19.65,-23.13,0,*40
1495595132.67,49069,15.13,73804.8,0.33,-19.91,-23.03,0,*4D
1495595133.91,49070,15.19,73808.0,0.33,-19.91,-23.03,0,*45
1495595135.14,49071,15.13,73802.3,0.33,-19.81,-22.93,0,*4D
1495595136.36,49072,15.19,73804.3,0.33,-19.91,-23.09,0,*4D
1495595137.62,49073,15.19,73804.8,0.33,-19.81,-23.03,0,*47
1495595138.86,49074,15.13,73806.5,0.33,-19.81,-23.09,0,*4A
1495595140.12,49075,15.19,73806.0,0.33,-19.81,-23.19,0,*4A
1495595141.36,49076,15.13,73806.0,0.33,-19.75,-23.19,0,*42
1495595142.62,49077,15.13,73802.8,0.33,-19.81,-23.19,0,*48
1495595143.88,49078,15.13,73806.0,0.33,-19.81,-23.23,0,*4E
1495595145.09,49079,15.19,73804.5,0.35,-19.91,-23.33,0,*49
1495595146.33,49080,15.13,73802.5,0.33,-19.91,-23.33,0,*49
1495595147.55,49081,15.13,73806.8,0.33,-19.95,-23.39,0,*46
1495595148.78,49082,15.13,73806.3,0.33,-20.05,-23.49,0,*41
1495595150.01,49083,15.19,73804.8,0.33,-20.05,-23.53,0,*4B
1495595151.24,49084,15.19,73804.3,0.33,-20.05,-23.53,0,*4C
1495595152.5,49085,15.13,73806.3,0.33,-20.35,-23.53,0,*4E
1495595153.75,49086,15.13,73806.0,0.33,-20.35,-23.69,0,*44
1495595154.99,49087,15.13,73804.0,0.33,-20.39,-23.65,0,*45
1495595156.25,49088,15.13,73800.5,0.33,-20.49,-23.65,0,*4D
1495595157.51,49089,15.13,73802.0,0.33,-20.49,-23.69,0,*40
1495595158.75,49090,15.19,73806.5,0.33,-20.63,-23.69,0,*40
1495595159.96,49091,15.13,73802.8,0.31,-20.69,-23.65,0,*45
1495595161.17,49092,15.13,73800.3,0.31,-20.69,-23.65,0,*46
1495595162.41,49093,15.13,73800.3,0.33,-20.73,-23.53,0,*4B
1495595163.64,49094,15.19,73804.8,0.33,-20.73,-23.53,0,*4C
1495595164.86,49095,15.13,73800.3,0.31,-20.89,-23.49,0,*41
1495595166.08,49096,15.19,73802.5,0.31,-20.89,-23.49,0,*42
1495595167.35,49097,15.13,73802.3,0.29,-21.03,-23.53,0,*42
1495595168.56,49098,15.13,73802.3,0.31,-20.99,-23.39,0,*4A
1495595169.8,49099,15.13,73802.5,0.31,-20.99,-23.33,0,*41
1495595171.05,49100,15.19,73804.0,0.31,-21.03,-23.19,0,*4A
1495595172.29,49101,15.13,73802.5,0.29,-21.09,-23.23,0,*41
1495595173.52,49102,15.19,73806.3,0.31,-21.17,-23.03,0,*46
1495595174.71,49103,15.13,73802.0,0.31,-21.17,-22.93,0,*4F
1495595175.96,49104,15.19,73804.5,0.31,-21.27,-22.77,0,*41
1495595177.18,49105,15.13,73804.0,0.31,-21.27,-22.57,0,*42
1495595178.43,49106,15.13,73802.0,0.29,-21.17,-22.47,0,*4A
1495595179.62,49107,15.13,73802.8,0.31,-21.17,-22.27,0,*44
1495595180.84,49108,15.13,73804.8,0.31,-21.27,-22.27,0,*48
1495595182.09,49109,15.13,73802.8,0.29,-21.17,-22.17,0,*40
1495595183.33,49110,15.13,73806.0,0.29,-21.09,-22.17,0,*47
1495595184.57,49111,15.13,73804.3,0.31,-20.99,-21.97,0,*4C
1495595185.82,49112,15.19,73804.5,0.29,-20.89,-21.87,0,*46
1495595187.05,49113,15.19,73804.8,0.31,-20.83,-21.93,0,*41
1495595188.26,49114,15.19,73804.5,0.31,-20.69,-21.97,0,*46
1495595189.5,49115,15.13,73802.0,0.31,-20.53,-21.83,0,*4B
1495595190.69,49116,15.19,73806.8,0.31,-20.63,-22.07,0,*44
1495595191.92,49117,15.13,73806.3,0.29,-20.59,-22.11,0,*42
1495595193.14,49118,15.13,73802.8,0.29,-20.69,-22.27,0,*4B
1495595194.37,49119,15.13,73804.0,0.29,-20.79,-22.41,0,*4B
1495595195.58,49120,15.13,73802.8,0.29,-20.73,-22.41,0,*4B
1495595196.83,49121,15.13,73802.8,0.29,-20.73,-22.47,0,*4C
1495595198.07,49122,15.13,73802.8,0.29,-20.79,-22.57,0,*44
1495595199.31,49123,15.13,73802.5,0.29,-20.79,-22.57,0,*45
1495595200.55,49124,15.13,73806.0,0.29,-20.89,-22.73,0,*4B
1495595201.78,49125,15.13,73806.0,0.29,-20.89,-22.83,0,*45
1495595202.99,49126,15.13,73802.5,0.29,-20.93,-22.83,0,*4D
1495595204.24,49127,15.19,73806.3,0.29,-21.03,-22.97,0,*41
1495595205.46,49128,15.13,73806.8,0.29,-21.09,-22.93,0,*40
1495595206.67,49129,15.19,73806.8,0.29,-21.09,-22.83,0,*40
1495595207.87,49130,15.19,73804.3,0.27,-21.09,-22.93,0,*47
1495595209.06,49131,15.19,73806.5,0.31,-21.09,-22.93,0,*41
1495595210.3,49132,15.13,73802.5,0.29,-21.03,-22.83,0,*40
1495595211.52,49133,15.19,73804.3,0.29,-21.09,-22.93,0,*4A
1495595212.74,49134,15.19,73806.8,0.27,-21.03,-22.83,0,*48
1495595213.96,49135,15.13,73806.5,0.27,-21.03,-22.83,0,*49
1495595215.18,49136,15.13,73804.5,0.27,-21.03,-22.83,0,*4A
1495595216.39,49137,15.19,73806.0,0.27,-20.89,-22.93,0,*49
1495595217.58,49138,15.19,73804.8,0.27,-20.93,-22.97,0,*49
1495595218.78,49139,15.19,73806.3,0.27,-20.89,-22.83,0,*46
1495595220.01,49140,15.13,73806.8,0.27,-20.89,-22.77,0,*43
1495595221.2,49141,15.13,73806.8,0.23,-20.93,-22.87,0,*42
1495595222.42,49142,15.13,73804.3,0.27,-20.73,-22.77,0,*44
1495595223.61,49143,15.19,73808.0,0.27,-20.69,-22.63,0,*4B
1495595224.82,49144,15.13,73806.5,0.27,-20.43,-22.63,0,*44
1495595226.04,49145,15.13,73802.5,0.27,-20.39,-22.47,0,*4E
1495595227.29,49146,15.19,73808.5,0.27,-20.15,-22.47,0,*43
1495595228.48,49147,15.19,73808.3,0.23,-20.05,-22.63,0,*41
1495595229.71,49148,15.19,73810.0,0.27,-19.75,-22.47,0,*41
1495595230.93,49149,15.19,73810.5,0.23,-19.65,-22.63,0,*43
1495595232.16,49150,15.13,73806.3,0.23,-19.57,-22.53,0,*49
1495595233.36,49151,15.13,73806.8,0.27,-19.37,-22.63,0,*49
1495595234.59,49152,15.13,73806.3,0.27,-19.17,-22.73,0,*49
1495595235.79,49153,15.13,73804.8,0.23,-19.13,-22.87,0,*43
1495595237.01,49154,15.19,73808.3,0.23,-19.07,-23.03,0,*4C
1495595238.21,49155,15.19,73810.3,0.27,-19.07,-23.13,0,*48
1495595239.41,49156,15.13,73806.8,0.23,-19.07,-23.43,0,*4A
1495595240.61,49157,15.13,73808.5,0.27,-19.07,-23.43,0,*4F
1495595241.82,49158,15.13,73810.0,0.23,-19.13,-23.75,0,*44
1495595243.04,49159,15.19,73808.3,0.27,-19.23,-23.75,0,*42
1495595244.29,49160,15.13,73808.0,0.23,-19.23,-23.95,0,*42
1495595245.54,49161,15.13,73810.3,0.23,-19.27,-23.99,0,*4B
1495595246.78,49162,15.13,73808.3,0.23,-19.41,-24.11,0,*4F
1495595248.0,49163,15.13,73804.8,0.27,-19.51,-24.11,0,*4B
1495595249.25,49164,15.13,73810.3,0.27,-19.61,-24.21,0,*4C
1495595250.47,49165,15.13,73804.0,0.23,-19.71,-24.15,0,*4F
1495595251.71,49166,15.19,73812.0,0.23,-19.85,-24.15,0,*47
1495595252.93,49167,15.13,73810.0,0.27,-19.95,-24.21,0,*44
1495595254.16,49168,15.13,73810.0,0.27,-19.99,-24.21,0,*47
1495595255.37,49169,15.13,73808.5,0.27,-20.09,-24.11,0,*46
1495595256.6,49170,15.19,73808.8,0.23,-20.35,-24.41,0,*40
1495595257.8,49171,15.13,73810.0,0.23,-20.43,-24.31,0,*47
1495595259.03,49172,15.13,73808.0,0.23,-20.59,-24.41,0,*48
1495595260.25,49173,15.13,73810.0,0.23,-20.63,-24.41,0,*40
1495595261.44,49174,15.13,73810.5,0.27,-20.73,-24.35,0,*41
1495595262.68,49175,15.19,73810.8,0.23,-20.83,-24.41,0,*48
1495595263.93,49176,15.19,73810.0,0.23,-20.99,-24.41,0,*40
1495595265.17,49177,15.13,73810.3,0.23,-20.99,-24.41,0,*41
1495595266.39,49178,15.13,73810.5,0.21,-21.13,-24.35,0,*4C
1495595267.6,49179,15.13,73808.8,0.21,-21.13,-24.47,0,*48
1495595268.85,49180,15.19,73810.8,0.21,-21.27,-24.47,0,*49
1495595270.06,49181,15.19,73808.0,0.21,-21.43,-24.47,0,*4A
1495595271.28,49182,15.19,73812.0,0.21,-21.43,-24.35,0,*4C
1495595272.52,49183,15.13,73810.3,0.21,-21.33,-24.47,0,*4F
1495595273.71,49184,15.19,73810.3,0.19,-21.43,-24.31,0,*45
1495595274.94,49185,15.13,73804.5,0.19,-21.47,-24.21,0,*41
1495595276.18,49186,15.13,73806.0,0.21,-21.57,-24.31,0,*49
1495595277.37,49187,15.19,73810.3,0.19,-21.63,-24.31,0,*44
1495595278.59,49188,15.13,73806.0,0.21,-21.63,-24.31,0,*40
1495595279.78,49189,15.13,73804.8,0.19,-21.73,-24.35,0,*4F
1495595281.0,49190,15.13,73806.0,0.21,-21.77,-24.35,0,*48
1495595282.19,49191,15.19,73804.0,0.19,-21.77,-24.47,0,*47
1495595283.41,49192,15.13,73804.0,0.19,-21.87,-24.35,0,*4E
1495595284.66,49193,15.13,73802.5,0.21,-21.87,-24.47,0,*41
1495595285.88,49194,15.13,73800.5,0.21,-21.93,-24.35,0,*46
1495595287.08,49195,15.13,73802.0,0.19,-21.93,-24.51,0,*4E
1495595288.29,49196,15.19,73802.8,0.19,-21.97,-24.47,0,*4E
1495595289.48,49197,15.13,73802.3,0.19,-22.07,-24.51,0,*42
1495595290.67,49198,15.13,73802.0,0.19,-22.07,-24.51,0,*4D
1495595291.89,49199,15.13,73800.5,0.19,-22.21,-24.61,0,*4B
1495595293.09,49200,15.19,73804.5,0.19,-22.11,-24.61,0,*4B
1495595294.28,49201,15.13,73800.0,0.19,-22.11,-24.51,0,*49
1495595295.47,49202,15.13,73800.5,0.19,-22.11,-24.51,0,*4A
1495595296.67,49203,15.13,73802.5,0.19,-22.11,-24.47,0,*4C
1495595297.86,49204,15.13,73800.5,0.19,-22.27,-24.61,0,*4A
1495595299.06,49205,15.13,73802.8,0.15,-22.27,-24.57,0,*42
1495595300.3,49206,15.13,73802.3,0.17,-22.31,-24.57,0,*44
1495595301.51,49207,15.13,73800.8,0.17,-22.27,-24.51,0,*44